sat.trackr.live / text

‹ back to catalog

STARLINK-11609 [DTC]

NORAD 63132 · 2025-043A

PAYLOAD ACTIVE UNKNOWN

§ Identity

Operator
Country
US
Launch date
2025-03-03
Launch site
AFETR
Launch vehicle
Mass (kg)
RCS (m²)

Purposes: comms

External: N2YO · Heavens-Above · Gunter

§ Orbital elements

Epoch: 2026-09-20T17:11:57.082560Z

Period
91.67 min
Inclination
43.0028°
Eccentricity
0.0002737
Mean motion
15.70890179 rev/d
Perigee alt
354.5 km
Apogee alt
358.2 km
Semi-major
6,734.5 km
B*
1.4086e-3
RAAN
155.2634°
Arg perigee
263.4061°
Mean anomaly
96.6495°
Rev number
9,013

§ Raw data

STARLINK-11609 [DTC]1 63132U 25043A   26263.71663290  .00184770  00000+0  14086-2 0  99992 63132  43.0028 155.2634 0002737 263.4061  96.6495 15.70890179 90130

JSON: /api/v1/satellites/63132 · /tle

For live sub-satellite position, see the globe view (requires WebGL).

§ Visibility from observer

Set your observer location to see the next 7 days of passes ≥ 10°. The values pass through the URL so the page stays shareable.

No JS? Fill the form by hand. The geolocation button needs JavaScript.